Home   Weather   Ittoqqortoormiit   Past weeks

Flag for Greenland Past Weather in Ittoqqortoormiit, Greenland — Yesterday and Last 2 Weeks

Now
-14 °F

Extremely cold.


Feels Like: -39 °F
Forecast: -8 / -1 °F
Wind: 17 mph from North

Location: Daneborg

Current Time: Feb 20, 2017 at 12:28:45 pm

Latest Report: Feb 20, 2017 at 11:00 am


Visibility: N/A

Pressure: 29.85 "Hg

Humidity: 63%

Dew Point: -23 °F

Location of IttoqqortoormiitLocation

Past Weather in Ittoqqortoormiit — Graph

°F

Ittoqqortoormiit Temperature Yesterday

Maximum temperature yesterday: -12 °F (at 12:00 am)
Minimum temperature yesterday: -30 °F (at 10:00 pm)
Average temperature yesterday: -21 °F

High & Low Weather Summary for the Past Weeks

 TemperatureHumidityPressure
High33 °F (Feb 9, 11:00 am)100% (Feb 9, 9:00 am)30.40 "Hg (Feb 9, 9:00 am)
Low-34 °F (Feb 18, 7:00 am)40% (Feb 13, 1:00 pm)29.15 "Hg (Feb 12, 12:00 am)
Average3 °F72%29.91 "Hg
* Reported Feb 5 11:00 am — Feb 20 11:00 am, Ittoqqortoormiit, Weather by CustomWeather, © 2017

Note: Actual official high and low records may vary slightly from our data, if they occured in-between our weather recording intervals... More about our weather records

Advertising

Ittoqqortoormiit Weather History for the Previous 24 Hours

Scroll right to see more
 ConditionsComfort  
Time TempWeatherWind HumidityBarometerVisibility
11:00 am
Mon, Feb 20
-14 °FExtremely cold.17 mph63%29.85 "HgN/A
10:00 am-17 °FExtremely cold.24 mph67%29.83 "HgN/A
9:00 am-17 °FExtremely cold.21 mph72%29.81 "HgN/A
8:00 am-16 °FExtremely cold.21 mph68%29.78 "HgN/A
7:00 am-14 °FExtremely cold.23 mph65%29.75 "HgN/A
6:00 am-18 °FExtremely cold.5 mph62%29.71 "HgN/A
5:00 am-22 °FExtremely cold.5 mph66%29.69 "HgN/A
4:00 am-28 °FExtremely cold.5 mph68%29.67 "HgN/A
3:00 am-25 °FExtremely cold.6 mph72%29.65 "HgN/A
2:00 am-27 °FExtremely cold.5 mph73%29.64 "HgN/A
1:00 am-34 °FExtremely cold.1 mph70%29.64 "HgN/A
12:00 am-24 °FExtremely cold.5 mph70%29.65 "HgN/A
11:00 pm
Sun, Feb 19
-24 °FExtremely cold.5 mph70%29.67 "HgN/A
10:00 pm-30 °FExtremely cold.5 mph73%29.67 "HgN/A
9:00 pm-22 °FExtremely cold.3 mph67%29.70 "HgN/A
8:00 pm-26 °FExtremely cold.1 mph74%29.72 "HgN/A
7:00 pm-23 °FExtremely cold.5 mph67%29.74 "HgN/A
6:00 pm-29 °FExtremely cold.2 mph62%29.76 "HgN/A
5:00 pm-26 °FExtremely cold.8 mph72%29.78 "HgN/A
4:00 pm-25 °FExtremely cold.5 mph68%29.79 "HgN/A
3:00 pm-21 °FExtremely cold.5 mph63%29.83 "HgN/A
2:00 pm-30 °FExtremely cold.3 mph64%29.85 "HgN/A
1:00 pm-18 °FExtremely cold.3 mph54%29.86 "HgN/A
12:00 pmN/A2 mphN/AN/AN/A
Weather by CustomWeather, © 2017

See weather overviewHow to use our weather pages